Location: Unspecified
(48.5670°N, 0.0000°E)
Time: 00:30:54
(UTC+00:00)

Altair - Pass Details

Date: 03 September 2019
Orbit: 1501 x 1683 km, 47.2° (Epoch: 17 October)

Event Time Altitude Azimuth Distance (km) Brightness Sun altitude
Exits shadow 04:24:37 - 282° (WNW) 4,633 9.5 -9.4°
Reaches altitude 10° 04:27:05 10° 280° (W) 3,852 9.1 -9.1°
Maximum altitude 04:36:48 71° 200° (SSW) 1,652 7.6 -7.6°
Drops below altitude 10° 04:46:06 10° 118° (ESE) 3,704 10.2 -6.1°
Sets 04:49:06 0° 117° (ESE) 4,667 10.8 -5.7°
